QPF
0.01 0.00 0.00 0.01 0.02 0.05 0.05 0.05 0.09 0.12 0.12 0.11 0.11 0.13 0.11 0.08 0.07 0.06 0.07 0.07 0.07 0.07 0.10 0.06 0.07 0.06 0.06 0.07 0.06 0.08 0.08 0.07 0.06 0.06 0.04 0.03 0.02 0.02 0.02 0.03 0.03 0.04 0.03
0.01 0.00 0.00 0.01 0.01 0.02 0.02 0.05 0.08 0.09 0.09 0.10 0.10 0.09 0.09 0.08 0.08 0.09 0.09 0.08 0.07 0.06 0.06 0.08 0.07 0.06 0.06 0.07 0.08 0.10 0.11 0.08 0.06 0.07 0.07 0.06 0.05 0.04 0.02 0.03 0.04 0.05 0.05
0.01 0.01 0.01 0.02 0.02 0.02 0.02 0.05 0.05 0.05 0.05 0.06 0.08 0.07 0.08 0.10 0.12 0.13 0.11 0.07 0.05 0.06 0.05 0.05 0.06 0.07 0.05 0.07 0.10 0.10 0.13 0.12 0.07 0.04 0.08 0.08 0.07 0.06 0.03 0.03 0.03 0.03 0.05
0.00 0.01 0.01 0.02 0.03 0.03 0.03 0.04 0.04 0.04 0.06 0.06 0.06 0.06 0.06 0.08 0.11 0.13 0.11 0.08 0.06 0.06 0.06 0.05 0.07 0.08 0.06 0.08 0.07 0.06 0.09 0.10 0.09 0.07 0.06 0.07 0.08 0.08 0.07 0.04 0.02 0.02 0.03
0.00 0.01 0.01 0.01 0.02 0.03 0.03 0.04 0.04 0.04 0.06 0.06 0.05 0.06 0.06 0.07 0.09 0.09 0.12 0.11 0.08 0.08 0.06 0.07 0.09 0.09 0.07 0.08 0.09 0.09 0.08 0.08 0.10 0.10 0.08 0.08 0.09 0.07 0.07 0.07 0.06 0.04 0.02
0.00 0.00 0.00 0.01 0.01 0.02 0.03 0.03 0.04 0.03 0.03 0.04 0.04 0.06 0.07 0.07 0.08 0.09 0.08 0.07 0.07 0.08 0.06 0.06 0.08 0.09 0.10 0.08 0.08 0.07 0.07 0.08 0.09 0.11 0.09 0.09 0.09 0.09 0.09 0.07 0.07 0.07 0.04
0.00 0.00 0.00 0.00 0.01 0.02 0.02 0.03 0.04 0.03 0.03 0.02 0.04 0.05 0.06 0.06 0.06 0.07 0.07 0.08 0.06 0.06 0.08 0.06 0.08 0.08 0.08 0.08 0.10 0.09 0.08 0.08 0.10 0.10 0.09 0.09 0.10 0.10 0.10 0.09 0.08 0.07 0.05
0.00 0.00 0.00 0.00 0.01 0.03 0.03 0.03 0.04 0.03 0.01 0.01 0.03 0.03 0.04 0.04 0.04 0.05 0.06 0.07 0.05 0.04 0.05 0.06 0.06 0.05 0.06 0.06 0.10 0.10 0.10 0.09 0.09 0.08 0.09 0.09 0.08 0.08 0.08 0.09 0.10 0.09 0.09
0.00 0.00 0.00 0.01 0.02 0.02 0.02 0.02 0.04 0.03 0.01 0.02 0.03 0.02 0.03 0.04 0.05 0.05 0.05 0.06 0.05 0.04 0.05 0.06 0.06 0.06 0.05 0.05 0.08 0.08 0.08 0.09 0.10 0.09 0.08 0.07 0.06 0.05 0.04 0.05 0.07 0.10 0.12
0.00 0.00 0.00 0.01 0.01 0.01 0.01 0.02 0.03 0.03 0.02 0.02 0.02 0.02 0.02 0.03 0.04 0.03 0.04 0.05 0.05 0.05 0.06 0.07 0.07 0.06 0.05 0.05 0.06 0.08 0.08 0.08 0.07 0.07 0.07 0.07 0.06 0.06 0.05 0.05 0.05 0.09 0.12
0.00 0.01 0.01 0.00 0.00 0.01 0.01 0.01 0.03 0.03 0.03 0.03 0.02 0.02 0.01 0.02 0.03 0.04 0.04 0.04 0.05 0.06 0.07 0.08 0.07 0.07 0.06 0.07 0.09 0.07 0.06 0.06 0.06 0.05 0.06 0.07 0.09 0.08 0.07 0.05 0.06 0.08 0.11
0.00 0.01 0.00 0.00 0.01 0.00 0.01 0.01 0.03 0.04 0.04 0.02 0.01 0.01 0.01 0.02 0.03 0.03 0.03 0.04 0.06 0.07 0.06 0.06 0.08 0.07 0.05 0.05 0.06 0.05 0.05 0.05 0.05 0.05 0.05 0.04 0.05 0.05 0.05 0.05 0.06 0.08 0.09
0.00 0.00 0.01 0.00 0.01 0.00 0.01 0.01 0.02 0.02 0.02 0.01 0.01 0.01 0.01 0.02 0.02 0.03 0.03 0.04 0.05 0.06 0.06 0.07 0.08 0.06 0.04 0.04 0.04 0.04 0.04 0.04 0.05 0.04 0.04 0.04 0.04 0.04 0.05 0.05 0.06 0.06 0.06
0.00 0.01 0.01 0.01 0.01 0.00 0.00 0.01 0.01 0.01 0.01 0.01 0.01 0.02 0.02 0.03 0.02 0.02 0.02 0.02 0.02 0.04 0.06 0.07 0.07 0.07 0.05 0.04 0.04 0.05 0.06 0.05 0.05 0.05 0.05 0.05 0.05 0.05 0.05 0.04 0.04 0.05 0.05
0.00 0.01 0.01 0.01 0.01 0.01 0.01 0.01 0.04 0.02 0.01 0.01 0.01 0.01 0.02 0.03 0.02 0.02 0.02 0.03 0.03 0.03 0.04 0.06 0.06 0.07 0.05 0.05 0.06 0.06 0.06 0.06 0.06 0.05 0.04 0.04 0.04 0.04 0.04 0.03 0.03 0.04 0.04
0.00 0.01 0.01 0.01 0.01 0.01 0.01 0.02 0.03 0.02 0.01 0.02 0.01 0.02 0.03 0.03 0.02 0.03 0.02 0.03 0.03 0.03 0.03 0.04 0.05 0.05 0.05 0.06 0.06 0.06 0.06 0.08 0.08 0.07 0.06 0.05 0.05 0.05 0.04 0.04 0.04 0.04 0.04
0.00 0.00 0.01 0.01 0.01 0.01 0.02 0.03 0.02 0.02 0.02 0.03 0.03 0.04 0.04 0.03 0.02 0.02 0.01 0.01 0.02 0.02 0.03 0.04 0.04 0.05 0.07 0.07 0.06 0.07 0.07 0.09 0.10 0.09 0.08 0.06 0.05 0.05 0.04 0.05 0.04 0.03 0.03
0.00 0.00 0.00 0.00 0.01 0.01 0.01 0.02 0.02 0.02 0.03 0.04 0.04 0.05 0.05 0.04 0.03 0.03 0.02 0.02 0.02 0.02 0.03 0.05 0.06 0.05 0.08 0.11 0.09 0.07 0.06 0.06 0.06 0.06 0.06 0.06 0.06 0.05 0.05 0.04 0.04 0.03 0.02
0.00 0.00 0.00 0.01 0.02 0.01 0.02 0.02 0.03 0.04 0.05 0.07 0.09 0.08 0.06 0.06 0.08 0.08 0.04 0.02 0.02 0.02 0.02 0.02 0.02 0.02 0.04 0.08 0.06 0.03 0.03 0.04 0.04 0.05 0.05 0.05 0.05 0.05 0.04 0.03 0.03 0.03 0.02
0.01 0.01 0.01 0.02 0.02 0.02 0.02 0.03 0.05 0.07 0.09 0.09 0.11 0.09 0.09 0.11 0.15 0.15 0.11 0.05 0.03 0.02 0.02 0.02 0.02 0.02 0.02 0.02 0.02 0.02 0.02 0.02 0.02 0.03 0.04 0.04 0.04 0.04 0.03 0.02 0.03 0.02 0.02
0.01 0.01 0.01 0.02 0.03 0.04 0.04 0.05 0.07 0.08 0.08 0.07 0.09 0.10 0.11 0.13 0.13 0.12 0.09 0.06 0.03 0.02 0.02 0.02 0.01 0.02 0.02 0.03 0.03 0.02 0.02 0.02 0.02 0.03 0.03 0.04 0.05 0.04 0.04 0.03 0.03 0.03 0.03
0.01 0.01 0.01 0.01 0.02 0.04 0.04 0.05 0.06 0.08 0.09 0.08 0.10 0.13 0.15 0.13 0.12 0.10 0.06 0.03 0.03 0.02 0.02 0.02 0.02 0.02 0.02 0.02 0.02 0.02 0.02 0.02 0.03 0.03 0.03 0.03 0.03 0.04 0.05 0.04 0.04 0.05 0.06
0.01 0.01 0.01 0.01 0.01 0.02 0.02 0.02 0.02 0.04 0.05 0.09 0.18 0.20 0.18 0.13 0.11 0.10 0.06 0.03 0.02 0.02 0.02 0.02 0.01 0.02 0.02 0.03 0.04 0.04 0.03 0.03 0.02 0.02 0.02 0.02 0.02 0.02 0.03 0.04 0.03 0.03 0.03
0.03 0.04 0.03 0.02 0.02 0.02 0.02 0.02 0.05 0.08 0.12 0.13 0.13 0.11 0.09 0.07 0.06 0.06 0.04 0.02 0.01 0.01 0.01 0.01 0.02 0.02 0.02 0.03 0.03 0.04 0.03 0.03 0.02 0.01 0.02 0.02 0.01 0.02 0.02 0.02 0.02 0.03 0.04
0.03 0.03 0.02 0.02 0.01 0.01 0.02 0.02 0.04 0.05 0.07 0.06 0.05 0.04 0.03 0.03 0.03 0.03 0.02 0.02 0.02 0.02 0.02 0.02 0.02 0.03 0.03 0.03 0.04 0.04 0.03 0.04 0.03 0.02 0.01 0.02 0.02 0.03 0.03 0.05 0.06 0.07 0.06
0.01 0.01 0.01 0.00 0.00 0.00 0.01 0.02 0.05 0.08 0.06 0.03 0.03 0.04 0.03 0.03 0.03 0.02 0.02 0.02 0.02 0.03 0.03 0.03 0.03 0.03 0.03 0.04 0.04 0.04 0.04 0.04 0.03 0.03 0.02 0.03 0.03 0.04 0.04 0.04 0.03 0.02 0.01
MSLP
1013.54 1013.93 1014.32 1014.71 1015.12 1015.52 1015.93 1016.31 1016.66 1016.96 1017.20 1017.37 1017.48 1017.55 1017.59 1017.61 1017.65 1017.72 1017.80 1017.92 1018.05 1018.19 1018.33 1018.47 1018.60 1018.72 1018.84 1018.96 1019.08 1019.18 1019.26 1019.30 1019.29 1019.21 1019.06 1018.85 1018.58 1018.28 1017.97 1017.69 1017.44 1017.26 1017.17
1013.59 1013.98 1014.38 1014.78 1015.17 1015.55 1015.91 1016.26 1016.58 1016.86 1017.11 1017.31 1017.46 1017.56 1017.62 1017.65 1017.67 1017.68 1017.71 1017.75 1017.82 1017.91 1018.03 1018.17 1018.32 1018.48 1018.64 1018.80 1018.94 1019.06 1019.14 1019.19 1019.17 1019.10 1018.97 1018.77 1018.52 1018.24 1017.92 1017.61 1017.31 1017.05 1016.85
1013.60 1014.00 1014.42 1014.83 1015.22 1015.58 1015.92 1016.24 1016.54 1016.83 1017.09 1017.32 1017.50 1017.64 1017.71 1017.73 1017.71 1017.66 1017.61 1017.56 1017.56 1017.59 1017.67 1017.80 1017.96 1018.15 1018.34 1018.52 1018.68 1018.80 1018.88 1018.91 1018.90 1018.84 1018.74 1018.59 1018.40 1018.16 1017.89 1017.59 1017.28 1016.97 1016.69
1013.59 1014.00 1014.44 1014.86 1015.26 1015.61 1015.94 1016.24 1016.54 1016.82 1017.10 1017.36 1017.58 1017.74 1017.83 1017.84 1017.78 1017.67 1017.54 1017.42 1017.33 1017.30 1017.34 1017.44 1017.60 1017.79 1017.99 1018.17 1018.32 1018.42 1018.48 1018.50 1018.48 1018.44 1018.37 1018.29 1018.18 1018.03 1017.84 1017.59 1017.30 1016.98 1016.63
1013.60 1014.02 1014.47 1014.91 1015.30 1015.65 1015.96 1016.24 1016.52 1016.81 1017.11 1017.39 1017.64 1017.84 1017.95 1017.96 1017.88 1017.72 1017.53 1017.34 1017.18 1017.09 1017.08 1017.15 1017.29 1017.47 1017.65 1017.81 1017.93 1017.99 1018.01 1018.00 1017.96 1017.93 1017.91 1017.89 1017.87 1017.82 1017.72 1017.55 1017.31 1016.98 1016.60
1013.68 1014.11 1014.56 1014.99 1015.37 1015.69 1015.96 1016.22 1016.48 1016.76 1017.06 1017.36 1017.64 1017.87 1018.01 1018.03 1017.95 1017.78 1017.55 1017.31 1017.10 1016.96 1016.91 1016.95 1017.06 1017.21 1017.36 1017.48 1017.55 1017.56 1017.53 1017.47 1017.41 1017.38 1017.38 1017.42 1017.48 1017.52 1017.51 1017.42 1017.23 1016.92 1016.52
1013.89 1014.29 1014.72 1015.12 1015.46 1015.73 1015.96 1016.16 1016.38 1016.63 1016.92 1017.23 1017.53 1017.78 1017.95 1018.01 1017.94 1017.78 1017.54 1017.29 1017.06 1016.89 1016.81 1016.83 1016.90 1017.02 1017.13 1017.21 1017.22 1017.18 1017.10 1016.99 1016.90 1016.86 1016.87 1016.94 1017.05 1017.15 1017.21 1017.18 1017.03 1016.75 1016.36
1014.21 1014.58 1014.96 1015.31 1015.58 1015.78 1015.93 1016.06 1016.21 1016.41 1016.67 1016.97 1017.28 1017.55 1017.75 1017.84 1017.81 1017.67 1017.46 1017.22 1017.00 1016.83 1016.74 1016.74 1016.80 1016.88 1016.96 1017.00 1016.98 1016.89 1016.76 1016.61 1016.49 1016.42 1016.43 1016.51 1016.63 1016.77 1016.86 1016.86 1016.74 1016.47 1016.09
1014.63 1014.95 1015.27 1015.53 1015.71 1015.82 1015.87 1015.91 1015.98 1016.12 1016.32 1016.59 1016.88 1017.16 1017.38 1017.51 1017.52 1017.42 1017.26 1017.05 1016.86 1016.72 1016.65 1016.65 1016.70 1016.78 1016.84 1016.86 1016.81 1016.70 1016.54 1016.37 1016.23 1016.14 1016.13 1016.19 1016.30 1016.42 1016.51 1016.50 1016.38 1016.13 1015.76
1015.10 1015.35 1015.59 1015.76 1015.84 1015.84 1015.79 1015.73 1015.71 1015.77 1015.91 1016.12 1016.38 1016.65 1016.88 1017.03 1017.08 1017.03 1016.92 1016.78 1016.64 1016.54 1016.50 1016.53 1016.60 1016.68 1016.75 1016.76 1016.72 1016.61 1016.45 1016.28 1016.13 1016.03 1016.00 1016.03 1016.11 1016.19 1016.24 1016.20 1016.06 1015.80 1015.43
1015.57 1015.75 1015.90 1015.97 1015.94 1015.84 1015.70 1015.55 1015.44 1015.41 1015.48 1015.64 1015.85 1016.09 1016.30 1016.46 1016.54 1016.55 1016.49 1016.42 1016.34 1016.30 1016.31 1016.38 1016.48 1016.59 1016.67 1016.71 1016.69 1016.61 1016.49 1016.34 1016.21 1016.12 1016.08 1016.08 1016.11 1016.14 1016.13 1016.04 1015.85 1015.57 1015.21
1016.00 1016.11 1016.17 1016.15 1016.03 1015.85 1015.62 1015.40 1015.22 1015.12 1015.12 1015.21 1015.36 1015.55 1015.74 1015.89 1015.99 1016.03 1016.04 1016.03 1016.03 1016.05 1016.12 1016.24 1016.37 1016.51 1016.63 1016.71 1016.73 1016.69 1016.62 1016.52 1016.43 1016.36 1016.33 1016.32 1016.31 1016.29 1016.21 1016.06 1015.83 1015.52 1015.16
1016.40 1016.44 1016.42 1016.32 1016.13 1015.88 1015.60 1015.33 1015.10 1014.95 1014.88 1014.90 1014.99 1015.12 1015.26 1015.40 1015.50 1015.58 1015.64 1015.70 1015.76 1015.86 1015.99 1016.15 1016.32 1016.49 1016.64 1016.74 1016.80 1016.82 1016.80 1016.77 1016.74 1016.71 1016.70 1016.70 1016.67 1016.61 1016.49 1016.28 1016.01 1015.67 1015.31
1016.79 1016.77 1016.68 1016.51 1016.27 1015.99 1015.68 1015.38 1015.12 1014.93 1014.81 1014.76 1014.78 1014.84 1014.93 1015.04 1015.14 1015.25 1015.35 1015.47 1015.61 1015.77 1015.96 1016.16 1016.36 1016.55 1016.71 1016.83 1016.92 1016.98 1017.01 1017.04 1017.07 1017.10 1017.14 1017.16 1017.14 1017.07 1016.91 1016.68 1016.37 1016.01 1015.64
1017.19 1017.11 1016.97 1016.75 1016.49 1016.19 1015.87 1015.56 1015.29 1015.06 1014.89 1014.78 1014.73 1014.72 1014.75 1014.82 1014.92 1015.05 1015.20 1015.38 1015.59 1015.81 1016.05 1016.29 1016.50 1016.69 1016.85 1016.97 1017.06 1017.14 1017.21 1017.28 1017.37 1017.47 1017.56 1017.62 1017.64 1017.58 1017.42 1017.18 1016.86 1016.49 1016.11
1017.62 1017.49 1017.30 1017.06 1016.78 1016.48 1016.17 1015.86 1015.58 1015.32 1015.10 1014.93 1014.80 1014.72 1014.69 1014.72 1014.81 1014.96 1015.16 1015.40 1015.67 1015.97 1016.25 1016.51 1016.74 1016.92 1017.05 1017.14 1017.21 1017.28 1017.36 1017.46 1017.60 1017.75 1017.90 1018.02 1018.08 1018.06 1017.93 1017.70 1017.39 1017.02 1016.65
1018.05 1017.89 1017.68 1017.42 1017.14 1016.84 1016.54 1016.24 1015.94 1015.65 1015.38 1015.13 1014.92 1014.77 1014.68 1014.67 1014.75 1014.91 1015.16 1015.46 1015.81 1016.16 1016.49 1016.78 1017.01 1017.16 1017.26 1017.31 1017.34 1017.38 1017.45 1017.57 1017.73 1017.92 1018.12 1018.30 1018.42 1018.45 1018.37 1018.18 1017.89 1017.54 1017.17
1018.43 1018.26 1018.03 1017.78 1017.51 1017.22 1016.93 1016.63 1016.31 1015.98 1015.65 1015.32 1015.03 1014.80 1014.64 1014.59 1014.65 1014.84 1015.12 1015.49 1015.90 1016.31 1016.69 1017.01 1017.23 1017.37 1017.44 1017.44 1017.43 1017.43 1017.48 1017.58 1017.75 1017.98 1018.22 1018.45 1018.63 1018.71 1018.69 1018.54 1018.30 1017.98 1017.63
1018.69 1018.52 1018.31 1018.07 1017.82 1017.56 1017.28 1016.97 1016.63 1016.25 1015.85 1015.45 1015.07 1014.75 1014.53 1014.43 1014.48 1014.66 1014.98 1015.39 1015.85 1016.32 1016.75 1017.10 1017.34 1017.48 1017.52 1017.50 1017.45 1017.42 1017.44 1017.53 1017.70 1017.94 1018.21 1018.48 1018.71 1018.85 1018.88 1018.79 1018.59 1018.32 1018.00
1018.77 1018.63 1018.44 1018.24 1018.02 1017.79 1017.52 1017.22 1016.85 1016.44 1015.97 1015.50 1015.03 1014.63 1014.34 1014.18 1014.19 1014.37 1014.69 1015.13 1015.63 1016.15 1016.62 1017.00 1017.27 1017.42 1017.46 1017.44 1017.38 1017.34 1017.35 1017.43 1017.61 1017.85 1018.14 1018.43 1018.69 1018.88 1018.95 1018.91 1018.77 1018.54 1018.27
1018.66 1018.55 1018.42 1018.27 1018.10 1017.90 1017.66 1017.36 1016.99 1016.54 1016.03 1015.48 1014.95 1014.47 1014.10 1013.87 1013.83 1013.97 1014.27 1014.71 1015.22 1015.76 1016.26 1016.68 1016.99 1017.17 1017.25 1017.26 1017.22 1017.20 1017.22 1017.31 1017.49 1017.74 1018.03 1018.34 1018.61 1018.82 1018.93 1018.94 1018.84 1018.67 1018.44
1018.38 1018.33 1018.26 1018.16 1018.05 1017.91 1017.71 1017.43 1017.06 1016.60 1016.06 1015.46 1014.87 1014.32 1013.87 1013.57 1013.45 1013.52 1013.78 1014.17 1014.66 1015.20 1015.71 1016.16 1016.51 1016.75 1016.89 1016.96 1016.98 1017.01 1017.07 1017.19 1017.38 1017.63 1017.92 1018.22 1018.50 1018.71 1018.84 1018.88 1018.83 1018.70 1018.53
1018.03 1018.03 1018.01 1017.99 1017.94 1017.85 1017.70 1017.47 1017.12 1016.66 1016.11 1015.49 1014.85 1014.24 1013.71 1013.32 1013.11 1013.10 1013.26 1013.58 1014.02 1014.52 1015.03 1015.49 1015.89 1016.19 1016.42 1016.57 1016.68 1016.78 1016.90 1017.07 1017.28 1017.54 1017.82 1018.10 1018.36 1018.56 1018.69 1018.75 1018.73 1018.66 1018.55
1017.69 1017.73 1017.77 1017.80 1017.81 1017.79 1017.70 1017.51 1017.20 1016.77 1016.22 1015.59 1014.92 1014.25 1013.66 1013.18 1012.87 1012.73 1012.79 1013.00 1013.35 1013.79 1014.27 1014.75 1015.18 1015.55 1015.87 1016.12 1016.34 1016.53 1016.73 1016.95 1017.19 1017.45 1017.71 1017.97 1018.19 1018.37 1018.49 1018.55 1018.56 1018.52 1018.47
1017.46 1017.52 1017.60 1017.67 1017.74 1017.76 1017.72 1017.58 1017.31 1016.91 1016.38 1015.76 1015.07 1014.36 1013.70 1013.13 1012.71 1012.46 1012.38 1012.48 1012.73 1013.09 1013.52 1013.99 1014.45 1014.90 1015.30 1015.66 1015.99 1016.28 1016.56 1016.84 1017.10 1017.36 1017.60 1017.81 1017.99 1018.13 1018.23 1018.28 1018.30 1018.31 1018.31
1017.39 1017.46 1017.55 1017.65 1017.73 1017.79 1017.77 1017.66 1017.43 1017.05 1016.55 1015.92 1015.22 1014.49 1013.77 1013.13 1012.60 1012.23 1012.04 1012.02 1012.16 1012.44 1012.83 1013.28 1013.78 1014.28 1014.76 1015.23 1015.65 1016.04 1016.40 1016.72 1017.01 1017.26 1017.47 1017.64 1017.77 1017.86 1017.92 1017.96 1017.99 1018.02 1018.06
Thickness
5804 5801 5795 5791 5785 5780 5775 5771 5766 5763 5759 5757 5754 5751 5750 5750 5751 5751 5750 5749 5748 5748 5747 5750 5747 5747 5748 5747 5748 5747 5746 5745 5747 5745 5744 5747 5749 5749 5747 5747 5747 5746 5743
5803 5799 5794 5790 5785 5780 5775 5771 5767 5765 5761 5759 5757 5754 5752 5752 5752 5752 5750 5749 5749 5749 5750 5748 5748 5748 5747 5746 5746 5745 5745 5746 5747 5744 5740 5739 5742 5745 5750 5748 5746 5746 5745
5804 5798 5793 5790 5786 5780 5776 5773 5769 5765 5762 5760 5757 5755 5752 5751 5751 5750 5750 5751 5750 5750 5749 5749 5749 5748 5749 5748 5747 5746 5744 5743 5746 5747 5742 5737 5736 5740 5746 5746 5746 5744 5743
5807 5800 5794 5790 5786 5782 5779 5774 5770 5766 5762 5760 5757 5753 5751 5750 5751 5751 5752 5752 5751 5751 5750 5749 5748 5748 5750 5749 5748 5750 5748 5745 5744 5745 5745 5744 5743 5736 5736 5742 5745 5743 5741
5807 5800 5796 5792 5788 5785 5780 5775 5770 5766 5763 5760 5757 5754 5753 5753 5754 5753 5751 5751 5752 5751 5751 5750 5749 5748 5749 5749 5749 5748 5748 5747 5745 5745 5745 5744 5742 5741 5735 5733 5736 5739 5740
5808 5802 5798 5792 5788 5785 5780 5775 5770 5765 5763 5760 5758 5755 5753 5752 5751 5751 5751 5752 5753 5752 5752 5751 5749 5749 5749 5749 5749 5748 5748 5747 5746 5746 5745 5743 5740 5739 5737 5733 5732 5732 5734
5809 5802 5796 5791 5786 5782 5779 5776 5770 5766 5764 5761 5759 5757 5754 5752 5751 5751 5751 5751 5752 5752 5751 5751 5750 5749 5749 5749 5748 5747 5748 5747 5745 5744 5744 5744 5743 5742 5738 5734 5732 5730 5731
5810 5804 5798 5792 5786 5782 5779 5775 5771 5766 5764 5762 5759 5757 5755 5754 5753 5751 5752 5751 5751 5751 5751 5750 5749 5748 5748 5748 5747 5747 5746 5745 5743 5743 5742 5741 5742 5741 5739 5735 5730 5725 5725
5809 5804 5800 5794 5788 5783 5779 5776 5770 5766 5764 5762 5759 5757 5755 5753 5752 5751 5750 5750 5749 5750 5749 5748 5748 5747 5746 5745 5744 5744 5742 5741 5741 5740 5739 5738 5739 5738 5737 5735 5731 5724 5719
5809 5804 5800 5796 5791 5786 5781 5777 5771 5767 5764 5761 5759 5758 5754 5752 5750 5750 5748 5747 5747 5747 5746 5746 5745 5744 5743 5742 5741 5741 5739 5738 5737 5736 5734 5733 5735 5734 5732 5731 5729 5726 5720
5809 5804 5800 5796 5792 5787 5781 5776 5771 5766 5763 5760 5758 5756 5754 5752 5749 5747 5746 5745 5745 5744 5743 5742 5742 5741 5740 5739 5737 5738 5737 5735 5733 5732 5731 5729 5728 5728 5728 5726 5724 5722 5718
5809 5804 5799 5794 5790 5786 5781 5775 5770 5766 5763 5760 5757 5754 5752 5750 5748 5746 5745 5743 5742 5741 5740 5739 5738 5737 5736 5735 5734 5733 5732 5731 5729 5727 5726 5725 5724 5722 5721 5720 5718 5716 5712
5805 5801 5796 5791 5787 5783 5779 5774 5770 5766 5764 5760 5756 5753 5751 5748 5745 5744 5742 5740 5739 5737 5737 5735 5734 5733 5732 5731 5729 5728 5727 5726 5724 5723 5721 5720 5718 5716 5715 5713 5712 5710 5708
5800 5796 5791 5787 5784 5780 5776 5772 5768 5766 5763 5759 5755 5751 5749 5746 5744 5742 5740 5737 5735 5733 5732 5731 5730 5729 5728 5727 5726 5724 5722 5720 5719 5717 5716 5714 5713 5710 5709 5707 5704 5703 5700
5796 5792 5788 5784 5780 5776 5773 5770 5767 5763 5760 5756 5752 5749 5747 5745 5742 5739 5736 5734 5732 5730 5728 5727 5726 5725 5724 5722 5720 5719 5717 5715 5713 5711 5709 5707 5704 5701 5700 5700 5697 5695 5693
5793 5790 5786 5782 5778 5774 5771 5767 5764 5760 5757 5752 5749 5746 5744 5741 5738 5735 5732 5729 5727 5725 5724 5723 5721 5720 5718 5714 5712 5712 5712 5710 5707 5705 5703 5700 5697 5693 5690 5687 5685 5684 5683
5791 5788 5784 5780 5776 5773 5770 5764 5761 5758 5753 5749 5745 5741 5739 5736 5734 5731 5727 5725 5722 5721 5719 5717 5715 5713 5709 5706 5705 5704 5705 5703 5700 5698 5697 5696 5691 5688 5685 5680 5677 5675 5672
5788 5786 5783 5779 5776 5773 5768 5763 5759 5754 5749 5745 5741 5737 5734 5731 5728 5726 5723 5720 5717 5715 5713 5711 5709 5705 5701 5698 5697 5697 5698 5696 5693 5691 5688 5685 5682 5680 5677 5675 5672 5668 5664
5786 5784 5782 5778 5773 5769 5764 5759 5754 5749 5745 5740 5736 5734 5731 5728 5724 5720 5718 5715 5712 5709 5707 5704 5702 5699 5694 5690 5689 5689 5691 5688 5685 5683 5679 5677 5673 5668 5666 5666 5663 5659 5655
5780 5778 5777 5773 5767 5763 5760 5754 5749 5744 5739 5736 5733 5731 5727 5723 5720 5716 5711 5709 5707 5703 5701 5698 5695 5692 5688 5683 5682 5681 5684 5680 5677 5673 5670 5664 5662 5658 5656 5657 5654 5650 5646
5771 5770 5768 5763 5759 5756 5753 5746 5742 5738 5735 5731 5728 5725 5721 5717 5714 5710 5706 5702 5700 5696 5693 5690 5687 5684 5681 5676 5673 5672 5674 5673 5670 5667 5663 5657 5651 5648 5646 5645 5643 5639 5636
5761 5760 5757 5754 5751 5749 5744 5739 5734 5733 5730 5725 5721 5718 5715 5713 5709 5704 5700 5697 5693 5689 5686 5683 5680 5677 5674 5669 5665 5663 5661 5661 5660 5657 5654 5647 5642 5639 5636 5634 5630 5627 5625
5751 5750 5747 5743 5740 5738 5735 5730 5727 5725 5722 5718 5714 5711 5708 5705 5702 5697 5693 5690 5686 5684 5681 5678 5675 5672 5668 5662 5658 5654 5651 5649 5649 5646 5640 5636 5632 5630 5627 5622 5620 5618 5618
5741 5739 5736 5732 5729 5727 5725 5722 5720 5718 5714 5710 5706 5703 5700 5697 5693 5690 5687 5683 5680 5677 5674 5671 5669 5666 5661 5657 5653 5649 5645 5640 5639 5635 5629 5625 5623 5621 5617 5614 5613 5611 5608
5731 5729 5725 5722 5719 5718 5715 5713 5711 5709 5705 5702 5699 5696 5692 5689 5684 5680 5677 5675 5671 5669 5667 5665 5662 5659 5655 5648 5643 5642 5639 5636 5632 5627 5624 5621 5619 5616 5613 5610 5606 5603 5599
5720 5717 5715 5713 5710 5708 5706 5704 5703 5701 5698 5695 5693 5691 5686 5682 5679 5674 5667 5661 5659 5655 5652 5650 5650 5647 5642 5636 5633 5629 5626 5623 5619 5618 5617 5614 5612 5609 5606 5603 5599 5595 5591